Theta_e
333 335 336 338 339 335 336 341 337 339 339 342 341 341 342 342 343 348 344 344 342 343 345 326 325 325 324 324 324 325 327 329 331 332 333 333 333 333 332 332 331 331 330 329 328 327 326 325 325
332 334 336 337 336 334 338 338 337 340 340 342 342 342 343 347 343 338 336 341 341 344 345 342 325 324 324 325 325 327 329 331 332 333 332 331 331 330 335 338 336 332 332 333 333 332 331 330 328
329 333 337 337 336 338 336 337 338 340 341 341 341 342 342 345 340 338 335 342 342 343 343 331 323 324 324 325 327 329 331 331 332 331 333 334 335 334 334 331 336 337 336 335 336 334 334 334 333
331 333 335 337 337 338 338 338 338 338 339 340 340 341 343 345 342 344 340 339 340 340 341 323 323 324 325 326 328 330 331 331 331 333 335 335 333 334 330 326 329 331 327 329 332 333 330 330 333
329 332 336 337 337 339 340 339 338 338 339 339 338 340 343 346 344 344 343 339 339 339 339 325 324 325 326 327 329 331 332 332 334 333 332 330 329 325 323 322 321 320 320 320 321 324 326 325 326
332 331 335 336 336 339 341 342 339 338 338 339 338 339 343 343 345 345 343 339 339 339 339 337 325 325 326 328 330 332 332 334 330 325 327 327 322 320 319 318 319 319 318 317 316 321 325 326 324
331 334 334 334 335 336 342 343 342 337 337 337 337 339 344 345 345 344 341 340 341 339 339 339 332 327 328 330 332 331 334 327 324 320 322 322 322 322 322 322 322 322 321 320 317 316 316 316 317
328 332 334 334 334 334 342 344 343 339 337 338 337 337 341 343 341 341 339 338 339 337 337 339 340 339 340 339 331 333 332 323 325 323 322 323 324 323 324 324 325 323 322 322 321 320 318 317 317
327 332 332 333 334 334 340 343 344 343 340 336 337 337 339 343 341 340 339 339 338 338 339 339 339 340 340 340 338 335 333 329 326 329 326 330 331 329 330 326 324 323 323 323 323 322 322 322 322
329 331 331 331 333 334 337 340 343 342 340 336 337 337 341 344 342 341 341 339 339 339 341 341 340 341 340 339 339 341 342 340 340 337 332 331 327 326 324 327 325 326 325 325 325 325 323 324 323
328 330 329 329 330 333 336 338 342 341 340 337 336 335 340 343 343 341 339 339 341 341 342 341 335 335 338 341 343 341 340 341 342 331 329 328 327 330 330 331 329 331 329 326 324 324 323 322 322
328 328 328 329 331 331 337 339 341 340 338 337 337 337 337 343 343 344 343 342 343 344 344 344 342 338 338 343 344 344 342 342 340 335 326 327 329 331 331 331 331 327 325 326 325 325 325 326 327
327 327 327 328 333 333 336 339 339 339 339 340 337 340 337 341 343 344 347 347 346 346 345 346 343 342 341 340 345 346 342 339 336 329 324 327 328 329 331 331 325 320 320 319 320 322 324 325 325
326 326 327 330 334 334 337 337 340 337 339 340 342 342 339 338 343 346 347 347 348 348 348 348 343 341 341 338 337 335 331 330 331 330 329 328 330 328 326 320 319 318 318 317 317 318 321 322 323
326 328 327 328 332 334 336 339 340 337 340 340 343 343 341 339 342 345 346 346 344 345 344 341 340 339 338 334 329 329 329 331 330 330 330 330 330 328 316 319 319 318 318 318 318 318 318 319 321
329 329 329 329 331 332 336 334 333 335 339 340 342 342 342 342 342 344 345 343 342 343 337 340 339 337 334 331 329 330 330 325 327 329 330 330 323 317 316 319 318 318 317 317 317 317 317 318 319
330 330 330 330 329 332 334 333 331 333 334 339 341 343 343 343 344 344 343 341 339 338 335 338 338 336 333 329 330 327 326 326 328 331 330 325 318 318 316 319 319 317 317 316 316 316 317 317 318
329 330 330 330 330 331 332 332 331 333 338 339 343 343 343 343 344 344 342 340 337 335 333 337 337 335 328 327 326 326 327 328 329 332 327 319 319 319 318 319 319 319 317 316 315 315 316 317 318
329 329 330 330 329 330 331 331 333 335 337 341 342 342 344 344 344 343 341 340 337 335 334 334 334 332 329 333 333 334 335 334 335 330 322 318 320 319 321 319 318 317 316 315 315 314 315 316 317
329 329 330 329 330 330 332 331 334 336 338 340 341 343 343 344 344 343 342 341 339 339 337 332 332 332 331 336 337 334 332 332 330 325 322 320 320 321 320 319 317 317 315 314 314 313 313 314 316
330 330 330 330 330 330 330 332 332 334 337 339 339 340 341 341 340 342 343 342 341 340 339 334 332 332 332 332 335 332 332 330 327 326 323 322 322 321 319 318 317 316 314 313 313 313 312 313 313
330 329 329 329 330 331 330 331 334 334 334 333 335 334 333 332 334 338 340 341 342 340 339 336 333 333 334 332 333 333 331 328 326 324 322 320 320 319 318 316 315 313 312 312 312 311 309 310 311
331 329 328 328 330 331 330 330 335 333 334 333 331 331 331 331 333 334 337 338 339 338 338 338 333 330 330 331 332 331 328 326 323 321 321 320 318 317 316 313 312 312 312 311 309 309 309 309 309
329 330 329 329 329 332 329 329 333 333 334 333 331 330 330 330 332 332 336 337 338 337 336 331 326 328 329 331 330 323 320 318 318 319 318 317 316 314 313 311 312 312 311 311 310 310 309 309 309
331 331 329 329 328 328 328 330 331 330 331 330 330 330 330 330 331 331 331 331 334 335 335 331 325 330 330 329 323 319 317 316 317 319 318 317 314 312 311 312 313 311 310 310 310 310 309 308 309
330 332 330 330 328 327 329 330 332 328 328 329 329 329 329 331 330 330 331 332 332 335 331 326 327 325 323 321 318 317 316 318 318 318 317 315 313 312 312 312 311 310 310 310 310 310 308 308 309
332 332 331 333 332 331 329 329 330 328 328 328 328 327 329 331 330 331 331 333 333 332 326 324 321 319 319 319 317 316 316 314 315 316 316 314 312 312 311 311 310 310 310 310 309 308 308 308 308
332 330 332 332 331 331 330 329 329 328 328 328 328 328 329 331 330 331 330 333 333 327 322 319 318 318 320 318 319 318 315 315 316 317 315 313 312 311 311 311 310 310 310 309 308 307 307 308 308
332 332 332 332 332 330 330 329 327 329 328 330 329 329 329 329 329 329 329 331 330 325 324 323 319 322 321 321 320 317 316 316 316 315 312 312 312 312 311 310 310 309 309 309 308 308 308 308 308
330 332 331 333 331 330 331 330 328 328 328 329 329 328 328 328 327 326 326 327 326 325 324 324 322 321 320 318 317 317 317 316 315 313 312 313 312 311 310 310 310 309 309 308 308 307 307 308 308
Wind_Speed
9 6 2 4 3 9 15 12 5 10 5 7 4 2 8 5 7 4 11 12 14 15 14 13 13 12 10 10 9 9 8 8 7 7 7 7 7 8 9 9 8 8 8 8 8 8 8 8 7
8 3 3 6 5 12 11 7 11 8 6 5 4 1 5 9 8 13 12 13 16 16 14 12 13 12 10 9 8 7 7 6 6 6 7 8 8 9 9 10 10 10 10 10 10 10 10 10 10
6 3 7 2 9 11 12 10 9 11 6 5 2 3 3 8 8 8 11 16 16 15 14 14 13 12 10 8 7 6 5 4 5 5 6 8 9 9 9 10 10 11 12 13 13 13 12 12 12
5 3 5 5 12 9 9 9 8 8 7 3 4 6 7 5 7 7 13 14 14 13 13 14 14 12 11 9 7 5 4 3 4 5 6 6 7 8 9 10 10 11 12 12 13 13 13 14 13
5 4 3 7 11 6 2 7 5 6 5 5 2 4 6 5 8 11 12 14 14 14 12 13 12 11 10 8 6 4 3 3 3 3 4 5 7 8 9 10 11 12 13 14 14 13 12 12 12
4 4 2 7 9 4 2 4 3 5 4 4 2 5 8 8 9 10 11 12 12 12 12 11 11 10 9 7 6 4 4 2 2 2 4 6 7 8 10 10 12 13 15 15 14 13 13 12 12
6 5 7 5 8 5 4 4 4 4 4 1 1 4 6 7 9 9 10 10 10 10 10 9 8 8 7 5 4 4 4 2 3 4 5 4 4 5 8 9 10 13 15 16 13 13 13 14 15
9 4 3 1 4 10 8 9 2 3 4 3 5 3 7 10 11 10 9 9 9 9 8 7 8 5 5 4 4 4 3 2 3 3 2 1 4 7 9 10 13 15 18 17 16 18 17 15 17
5 6 6 5 4 8 9 10 5 4 6 8 8 0 3 14 13 11 10 9 8 8 9 8 7 7 6 6 5 4 3 2 2 2 3 3 4 7 9 15 17 18 19 20 19 20 20 19 16
9 5 4 4 1 1 7 10 11 7 8 10 10 6 6 13 14 12 10 9 8 8 8 7 7 7 6 5 5 5 5 3 4 4 5 4 9 11 15 15 18 19 21 22 21 21 20 19 13
1 4 4 1 4 5 5 10 9 11 8 9 11 10 12 14 13 11 9 8 7 7 7 8 9 9 8 6 5 5 5 6 6 9 8 9 10 11 12 14 17 18 20 19 20 22 21 20 22
8 1 3 3 2 7 8 8 11 13 2 3 9 9 15 15 13 11 9 8 8 7 7 6 8 10 9 7 6 7 7 8 7 7 11 11 10 11 12 14 17 20 22 22 22 22 23 23 22
7 1 1 2 3 8 7 11 11 10 11 3 7 9 14 13 11 10 9 8 7 7 8 8 10 12 12 13 11 11 10 8 8 10 12 11 11 14 11 14 19 21 21 21 22 22 23 24 24
0 2 2 1 3 4 9 7 7 5 11 12 8 10 14 14 11 9 7 7 7 8 9 9 10 11 14 16 14 12 10 10 7 8 9 15 10 17 14 20 18 18 18 19 20 21 22 21 22
4 8 6 4 3 1 6 8 12 14 4 11 8 10 13 14 12 10 7 6 5 7 11 14 12 13 12 10 8 8 8 7 7 6 14 15 15 19 23 16 17 17 18 18 19 20 21 21 21
6 7 10 7 5 2 8 9 5 9 10 12 8 10 12 13 11 10 8 5 4 6 8 10 10 11 9 10 9 8 10 11 11 16 17 13 18 21 23 18 18 18 18 19 20 20 21 20 21
6 7 6 6 0 4 9 10 9 7 11 12 8 10 11 12 10 9 8 5 4 4 6 8 10 10 11 11 10 12 13 15 16 23 11 15 19 19 27 19 19 21 20 21 21 20 19 20 20
6 3 5 5 3 4 7 12 4 6 7 8 6 8 9 11 10 11 10 7 6 5 6 7 8 11 12 13 12 15 16 17 22 22 10 20 17 21 25 19 18 19 20 21 20 22 21 20 19
3 3 2 4 3 4 3 6 5 6 3 3 5 7 7 9 9 10 11 7 12 11 8 6 9 13 12 10 9 10 11 12 14 11 17 20 16 17 18 19 19 20 20 21 21 20 20 19 18
1 3 5 2 3 8 3 6 3 6 4 1 2 4 5 8 8 10 11 10 11 8 7 9 10 13 12 10 10 15 16 17 13 12 17 21 19 16 18 20 20 20 24 22 20 24 21 18 16
4 9 8 9 2 2 6 10 1 4 4 3 3 3 4 5 7 8 10 11 11 9 8 10 11 9 10 13 13 17 18 16 12 13 16 16 17 18 19 20 22 23 22 21 23 23 23 21 18
2 6 7 8 9 5 2 3 7 3 6 7 10 9 7 6 5 3 4 6 8 8 7 8 8 7 10 13 12 15 15 13 14 16 17 25 18 19 20 21 23 23 22 21 18 21 24 20 20
7 5 6 5 4 8 9 8 8 2 5 6 7 6 5 4 2 3 2 3 3 3 4 4 8 12 12 13 15 15 11 14 15 17 19 22 20 21 22 23 22 18 16 17 17 16 16 18 19
3 5 3 4 3 5 7 7 10 4 2 4 4 8 6 6 3 3 3 3 3 3 3 4 10 11 14 16 17 17 20 23 24 24 25 22 22 22 22 21 18 18 19 19 19 18 18 20 18
4 10 2 3 3 4 6 7 8 4 1 6 6 8 9 5 4 3 3 3 4 4 4 6 10 12 14 15 16 19 22 26 24 21 20 22 24 23 21 19 18 20 24 23 21 22 21 20 20
5 8 7 8 7 9 4 4 6 3 5 9 11 13 10 5 5 4 3 3 4 4 5 8 11 12 13 15 17 20 23 19 18 18 22 22 23 20 20 19 20 27 25 19 19 20 21 19 19
4 3 3 5 5 6 4 2 11 1 6 10 13 13 11 8 6 5 4 4 5 5 8 11 11 12 14 15 17 18 21 22 23 23 20 20 20 19 19 21 25 27 19 18 18 19 18 16 17
5 4 4 3 6 9 8 5 4 11 9 10 10 11 9 10 6 5 5 6 6 6 10 12 12 11 12 14 13 15 20 26 24 20 21 20 19 20 21 21 28 21 18 18 17 16 17 15 12
5 5 1 4 3 8 7 10 10 9 12 13 16 15 7 6 4 4 5 6 5 6 8 11 12 9 8 10 13 20 24 23 20 20 19 18 17 18 20 26 22 18 18 16 15 15 13 12 12
2 3 2 5 8 4 6 7 4 11 15 13 14 8 1 2 2 4 6 5 5 8 10 12 12 11 10 16 22 21 21 21 19 19 17 16 17 19 24 23 18 17 14 15 14 13 12 12 9
Wind_Direction
42 78 75 284 201 77 62 72 79 76 116 67 112 325 28 30 5 50 136 167 164 160 162 153 152 146 135 130 130 124 114 100 88 77 68 56 45 40 36 32 27 21 15 10 4 358 352 349 343
32 60 319 277 51 77 63 56 73 65 64 94 85 275 37 66 57 116 133 140 145 159 158 160 155 148 142 140 134 122 107 92 80 61 49 44 43 43 38 29 27 22 17 13 8 0 351 342 333
26 4 283 52 49 52 73 62 65 79 97 120 123 44 45 81 107 118 140 144 149 153 157 164 157 152 149 148 138 128 110 93 74 61 54 52 50 45 33 26 19 15 9 0 356 356 355 353 342
349 243 225 53 75 70 47 80 82 107 90 86 79 83 102 96 133 135 143 148 149 152 158 163 161 157 155 155 154 146 120 92 79 76 65 56 43 46 39 35 27 20 9 6 2 359 354 351 350
341 254 158 81 88 85 65 75 106 95 90 102 35 96 91 93 116 134 148 151 157 156 162 168 163 160 161 164 164 155 139 121 109 85 73 63 60 50 42 35 29 19 9 3 358 354 355 353 351
257 273 211 95 95 99 126 119 114 73 91 100 183 115 82 129 131 140 146 156 160 163 162 180 170 170 172 176 175 174 164 141 82 82 89 82 62 54 40 31 22 11 4 359 354 350 346 345 337
320 291 47 65 89 157 136 173 179 98 125 106 359 150 111 150 159 155 152 161 161 169 168 172 181 182 185 189 191 191 179 160 90 77 73 76 51 33 19 11 2 355 353 353 347 341 336 330 326
293 270 178 85 122 94 151 174 178 171 119 154 177 106 139 169 156 156 154 160 165 172 177 182 176 197 194 221 206 206 228 165 63 64 69 70 353 355 350 3 331 340 341 340 337 335 333 327 315
274 246 130 113 183 103 146 190 153 172 170 197 192 341 66 168 160 156 156 163 167 176 178 184 188 204 194 206 226 217 234 249 281 320 315 331 321 339 348 321 328 327 326 324 323 320 318 321 310
262 286 82 25 46 234 168 202 161 183 194 202 208 204 162 166 170 169 169 169 171 180 189 192 194 202 203 206 217 227 223 238 245 259 280 318 309 320 324 322 322 317 317 314 315 308 305 309 308
227 285 51 294 268 266 208 208 186 212 196 221 210 186 176 175 182 178 179 176 175 188 193 209 217 213 203 220 236 247 246 255 270 271 286 304 310 307 319 317 323 313 319 318 306 299 297 290 289
265 304 282 12 290 222 216 208 206 219 247 288 203 182 183 183 188 191 188 186 193 200 206 224 224 232 231 235 251 258 257 264 257 269 300 305 315 308 307 316 324 322 318 311 310 301 294 285 283
233 31 342 225 212 213 209 223 230 219 223 192 204 198 190 184 187 194 199 201 208 226 231 231 251 250 251 256 251 256 249 258 258 287 302 302 309 306 322 325 328 320 314 312 305 300 294 288 285
277 273 121 191 179 214 230 214 226 239 222 227 235 213 191 189 183 183 194 210 224 233 235 235 264 263 262 267 264 253 254 261 273 284 294 312 317 310 322 322 321 320 316 314 308 301 294 293 287
192 213 182 60 167 139 237 205 235 251 230 233 232 211 190 192 195 197 204 204 223 237 240 257 264 265 267 255 244 240 253 259 270 280 300 303 301 306 315 326 325 320 316 317 312 306 300 293 288
211 214 209 73 183 133 214 258 159 253 249 247 222 206 195 195 199 207 209 212 229 208 260 253 255 269 259 248 250 247 261 269 275 292 308 300 308 313 325 324 321 312 322 314 310 308 303 297 290
179 66 75 111 316 170 226 270 52 332 261 250 234 211 203 192 196 199 206 215 232 254 264 255 264 265 263 260 258 265 273 278 290 305 305 296 309 315 322 325 317 315 318 315 314 309 304 300 295
30 117 107 51 73 240 220 258 354 346 300 245 230 211 212 205 213 217 216 220 242 266 289 249 258 259 265 265 276 279 282 294 299 308 289 304 307 313 320 321 310 316 317 314 309 313 308 300 299
46 28 28 103 77 264 308 285 330 342 290 204 219 212 206 213 218 220 229 222 256 272 290 278 273 275 270 264 269 282 281 289 298 297 295 304 305 312 308 313 311 311 308 307 311 308 312 302 295
305 306 39 165 41 281 292 275 324 19 40 288 201 180 196 209 219 237 231 238 257 262 273 302 305 280 271 263 274 271 283 294 296 286 295 308 309 306 307 306 308 306 310 310 306 301 309 305 294
49 351 342 328 335 214 288 236 179 57 84 123 171 175 180 191 226 239 243 241 249 264 269 303 318 281 269 263 274 287 299 315 311 297 302 295 304 307 308 313 314 313 311 305 297 297 295 293 288
329 4 314 300 275 336 345 346 126 60 106 108 133 138 150 172 203 246 248 247 252 257 267 296 302 286 279 288 277 290 307 304 295 311 307 313 312 311 317 316 311 307 304 296 295 292 293 289 286
47 353 341 308 258 224 53 277 106 163 156 131 140 156 177 189 180 239 271 286 292 267 270 272 309 308 301 302 301 311 303 305 309 312 310 314 315 313 312 313 315 315 318 309 307 305 305 296 285
132 272 230 217 218 215 36 312 94 82 348 162 190 213 218 228 225 247 274 284 291 285 282 289 301 306 309 311 316 316 317 318 318 315 320 315 312 312 311 312 313 312 309 304 298 294 297 300 291
307 344 300 293 333 5 20 269 48 23 225 284 273 241 236 220 242 237 237 255 266 268 271 275 297 312 314 318 319 318 318 318 319 314 317 315 315 312 312 310 308 310 311 305 301 298 300 298 285
40 335 16 337 349 340 115 11 76 28 289 274 267 266 269 250 257 240 241 239 263 247 265 300 312 314 319 318 311 311 311 314 318 314 314 315 314 311 306 307 305 314 313 311 299 299 301 295 290
101 19 12 309 190 271 35 49 230 225 284 259 264 266 258 250 248 230 232 248 254 266 286 306 309 312 309 297 300 306 309 312 317 317 314 312 310 305 307 300 311 316 315 307 302 303 305 298 296
340 106 303 295 336 326 344 302 312 345 335 330 284 277 267 250 245 227 242 258 261 276 291 296 300 292 282 289 296 302 316 315 315 317 315 312 309 311 304 308 314 315 311 307 308 313 313 302 300
173 186 43 278 331 322 318 327 36 356 338 324 318 323 290 244 258 244 263 263 253 283 282 279 285 278 281 291 309 312 316 315 318 317 313 309 310 306 311 314 315 314 316 312 315 313 312 307 308
319 14 328 332 340 324 283 305 46 345 329 330 331 335 63 340 330 297 287 270 277 303 293 281 281 279 281 289 293 305 315 319 319 315 314 309 306 310 320 316 315 316 318 317 317 313 315 317 313